| time (UTC) | temp C | wind direction | speed KPH | gust KPH | rain 1hr cm | rain 24hr cm | rain mn cm | humidity % | barometer mb |
| 20260905210236 | 15 | 240 | 11.3 | 0.0 | 0.00 | 0.00 | 0.00 | 62 | 1021.0 |
| 20260905210059 | 15 | 220 | 16.1 | 0.0 | 0.00 | 0.00 | 0.00 | 62 | 1020.0 |
| 20260905205137 | 15 | 220 | 16.1 | 0.0 | 0.00 | 0.00 | 0.00 | 62 | 1020.0 |
| 20260905204737 | 15 | 220 | 16.1 | 0.0 | 0.00 | 0.00 | 0.00 | 62 | 1020.0 |
| 20260905204138 | 15 | 220 | 16.1 | 0.0 | 0.00 | 0.00 | 0.00 | 62 | 1020.0 |
| 20260905203238 | 15 | 220 | 16.1 | 0.0 | 0.00 | 0.00 | 0.00 | 62 | 1020.0 |
| 20260905202228 | 17 | 230 | 19.3 | 0.0 | 0.00 | 0.00 | 0.00 | 52 | |
| 20260905200938 | 16 | 230 | 16.1 | 0.0 | 0.00 | 0.00 | 0.00 | 59 | 1020.0 |
| 20260905200341 | 16 | 230 | 16.1 | 0.0 | 0.00 | 0.00 | 0.00 | 59 | 1020.0 |
| 20260905195938 | 17 | 230 | 12.9 | 0.0 | 0.00 | 0.00 | 0.00 | 59 | 1020.0 |
| 20260905195238 | 17 | 230 | 12.9 | 0.0 | 0.00 | 0.00 | 0.00 | 59 | 1020.0 |
| 20260905194138 | 17 | 230 | 12.9 | 0.0 | 0.00 | 0.00 | 0.00 | 59 | 1020.0 |
| 20260905193451 | 17 | 230 | 12.9 | 0.0 | 0.00 | 0.00 | 0.00 | 59 | 1020.0 |
| 20260905193238 | 17 | 230 | 12.9 | 0.0 | 0.00 | 0.00 | 0.00 | 59 | 1020.0 |
| 20260905192739 | 17 | 250 | 12.9 | 0.0 | 0.00 | 0.00 | 0.00 | 52 | 1020.0 |
| 20260905192624 | 17 | 240 | 14.5 | 0.0 | 0.00 | 0.00 | 0.00 | 52 | |
| 20260905192145 | 17 | 250 | 12.9 | 0.0 | 0.00 | 0.00 | 0.00 | 52 | 1020.0 |
| 20260905191638 | 17 | 250 | 12.9 | 0.0 | 0.00 | 0.00 | 0.00 | 52 | 1020.0 |
| 20260905182211 | 18 | 260 | 11.3 | 0.0 | 0.00 | 0.00 | 0.00 | 48 | |
| 20260905181338 | 18 | 260 | 12.9 | 0.0 | 0.00 | 0.00 | 0.00 | 48 | 1019.0 |
| 20260905181138 | 18 | 260 | 12.9 | 0.0 | 0.00 | 0.00 | 0.00 | 48 | 1019.0 |
| 20260905180738 | 18 | 260 | 12.9 | 0.0 | 0.00 | 0.00 | 0.00 | 48 | 1019.0 |
| 20260905180341 | 18 | 260 | 12.9 | 0.0 | 0.00 | 0.00 | 0.00 | 48 | 1019.0 |
| 20260905180140 | 20 | 280 | 11.3 | 0.0 | 0.00 | 0.00 | 0.00 | 45 | 1019.0 |
| 20260905175438 | 20 | 280 | 11.3 | 0.0 | 0.00 | 0.00 | 0.00 | 45 | 1019.0 |
| 20260905175238 | 20 | 280 | 11.3 | 0.0 | 0.00 | 0.00 | 0.00 | 45 | 1019.0 |
| 20260905174738 | 20 | 280 | 11.3 | 0.0 | 0.00 | 0.00 | 0.00 | 45 | 1019.0 |
| 20260905174138 | 20 | 280 | 11.3 | 0.0 | 0.00 | 0.00 | 0.00 | 45 | 1019.0 |
| 20260905173452 | 20 | 280 | 11.3 | 0.0 | 0.00 | 0.00 | 0.00 | 45 | 1019.0 |
| 20260905172738 | 21 | 270 | 19.3 | 0.0 | 0.00 | 0.00 | 0.00 | 43 | 1019.0 |
| 20260905172248 | 21 | 270 | 19.3 | 0.0 | 0.00 | 0.00 | 0.00 | 43 | |
| 20260905172152 | 21 | 270 | 19.3 | 0.0 | 0.00 | 0.00 | 0.00 | 43 | 1019.0 |
| 20260905171600 | 21 | 270 | 19.3 | 0.0 | 0.00 | 0.00 | 0.00 | 43 | 1019.0 |
| 20260905170552 | 21 | 270 | 19.3 | 0.0 | 0.00 | 0.00 | 0.00 | 43 | 1019.0 |
| 20260905170237 | 21 | 270 | 19.3 | 0.0 | 0.00 | 0.00 | 0.00 | 43 | 1019.0 |
| 20260905163838 | 21 | 270 | 24.1 | 0.0 | 0.00 | 0.00 | 0.00 | 40 | 1018.0 |
| 20260905163231 | 21 | 270 | 24.1 | 0.0 | 0.00 | 0.00 | 0.00 | 40 | 1018.0 |
| 20260905162937 | 21 | 280 | 14.5 | 0.0 | 0.00 | 0.00 | 0.00 | 40 | 1018.0 |
| 20260905162616 | 21 | 280 | 22.5 | 0.0 | 0.00 | 0.00 | 0.00 | 40 | |
| 20260905162245 | 21 | 280 | 14.5 | 0.0 | 0.00 | 0.00 | 0.00 | 40 | 1018.0 |
| 20260905161639 | 21 | 280 | 14.5 | 0.0 | 0.00 | 0.00 | 0.00 | 40 | 1018.0 |
| 20260905161139 | 21 | 280 | 14.5 | 0.0 | 0.00 | 0.00 | 0.00 | 40 | 1018.0 |
| 20260905160838 | 21 | 280 | 14.5 | 0.0 | 0.00 | 0.00 | 0.00 | 40 | 1018.0 |
| 20260905160340 | 21 | 280 | 14.5 | 0.0 | 0.00 | 0.00 | 0.00 | 40 | 1018.0 |
| 20260905154738 | 22 | 270 | 22.5 | 0.0 | 0.00 | 0.00 | 0.00 | 37 | 1018.0 |
| 20260905154559 | 22 | 270 | 22.5 | 0.0 | 0.00 | 0.00 | 0.00 | 37 | 1018.0 |
| 20260905154238 | 22 | 270 | 22.5 | 0.0 | 0.00 | 0.00 | 0.00 | 37 | 1018.0 |
| 20260905152306 | 22 | 260 | 22.5 | 0.0 | 0.00 | 0.00 | 0.00 | 33 | |
| 20260905151849 | 22 | 260 | 25.7 | 0.0 | 0.00 | 0.00 | 0.00 | 35 | 1018.0 |
| 20260905151139 | 22 | 260 | 25.7 | 0.0 | 0.00 | 0.00 | 0.00 | 35 | 1018.0 |
| 20260905150637 | 22 | 260 | 25.7 | 0.0 | 0.00 | 0.00 | 0.00 | 35 | 1018.0 |
| 20260905145938 | 22 | 260 | 32.2 | 0.0 | 0.00 | 0.00 | 0.00 | 33 | 1017.0 |
| 20260905145638 | 22 | 260 | 32.2 | 0.0 | 0.00 | 0.00 | 0.00 | 33 | 1017.0 |
| 20260905145137 | 22 | 260 | 32.2 | 0.0 | 0.00 | 0.00 | 0.00 | 33 | 1017.0 |
| 20260905144238 | 22 | 260 | 32.2 | 0.0 | 0.00 | 0.00 | 0.00 | 33 | 1017.0 |
| 20260905143739 | 22 | 260 | 32.2 | 0.0 | 0.00 | 0.00 | 0.00 | 33 | 1017.0 |
| 20260905142145 | 22 | 260 | 27.4 | 0.0 | 0.00 | 0.00 | 0.00 | 38 | 1017.0 |
| 20260905142048 | 22 | 260 | 29.0 | 0.0 | 0.00 | 0.00 | 0.00 | 38 | |
| 20260905140451 | 22 | 260 | 27.4 | 0.0 | 0.00 | 0.00 | 0.00 | 38 | 1017.0 |
| 20260905140142 | 22 | 280 | 24.1 | 0.0 | 0.00 | 0.00 | 0.00 | 38 | 1017.0 |
| 20260905135100 | 22 | 280 | 24.1 | 0.0 | 0.00 | 0.00 | 0.00 | 38 | 1017.0 |
| 20260905134637 | 22 | 280 | 24.1 | 0.0 | 0.00 | 0.00 | 0.00 | 38 | 1017.0 |
| 20260905134238 | 22 | 280 | 24.1 | 0.0 | 0.00 | 0.00 | 0.00 | 38 | 1017.0 |
| 20260905133839 | 22 | 280 | 24.1 | 0.0 | 0.00 | 0.00 | 0.00 | 38 | 1017.0 |
| 20260905133451 | 22 | 280 | 24.1 | 0.0 | 0.00 | 0.00 | 0.00 | 38 | 1017.0 |
| 20260905133241 | 22 | 280 | 24.1 | 0.0 | 0.00 | 0.00 | 0.00 | 38 | 1017.0 |
| 20260905133138 | 22 | 270 | 25.7 | 0.0 | 0.00 | 0.00 | 0.00 | 40 | 1017.0 |
| 20260905132359 | 22 | 270 | 25.7 | 0.0 | 0.00 | 0.00 | 0.00 | 38 | |
| 20260905132248 | 22 | 270 | 25.7 | 0.0 | 0.00 | 0.00 | 0.00 | 40 | 1017.0 |
| 20260905131637 | 22 | 270 | 25.7 | 0.0 | 0.00 | 0.00 | 0.00 | 40 | 1017.0 |
| 20260905131138 | 22 | 270 | 25.7 | 0.0 | 0.00 | 0.00 | 0.00 | 40 | 1017.0 |
| 20260905130738 | 22 | 270 | 25.7 | 0.0 | 0.00 | 0.00 | 0.00 | 40 | 1017.0 |
| 20260905130242 | 22 | 270 | 25.7 | 0.0 | 0.00 | 0.00 | 0.00 | 40 | 1017.0 |
| 20260905125638 | 22 | 260 | 27.4 | 0.0 | 0.00 | 0.00 | 0.00 | 40 | 1018.0 |
| 20260905125439 | 22 | 260 | 27.4 | 0.0 | 0.00 | 0.00 | 0.00 | 40 | 1018.0 |
| 20260905125238 | 22 | 260 | 27.4 | 0.0 | 0.00 | 0.00 | 0.00 | 40 | 1018.0 |
| 20260905124938 | 22 | 260 | 27.4 | 0.0 | 0.00 | 0.00 | 0.00 | 40 | 1018.0 |
| 20260905124559 | 22 | 260 | 27.4 | 0.0 | 0.00 | 0.00 | 0.00 | 40 | 1018.0 |
| 20260905124059 | 22 | 260 | 27.4 | 0.0 | 0.00 | 0.00 | 0.00 | 40 | 1018.0 |
| 20260905123639 | 22 | 260 | 27.4 | 0.0 | 0.00 | 0.00 | 0.00 | 40 | 1018.0 |
| 20260905123338 | 22 | 260 | 27.4 | 0.0 | 0.00 | 0.00 | 0.00 | 40 | 1018.0 |
| 20260905123138 | 22 | 280 | 20.9 | 0.0 | 0.00 | 0.00 | 0.00 | 43 | 1018.0 |
| 20260905122256 | 22 | 280 | 19.3 | 0.0 | 0.00 | 0.00 | 0.00 | 40 | |
| 20260905122145 | 22 | 280 | 20.9 | 0.0 | 0.00 | 0.00 | 0.00 | 43 | 1018.0 |
| 20260905121749 | 22 | 280 | 20.9 | 0.0 | 0.00 | 0.00 | 0.00 | 43 | 1018.0 |
| 20260905121138 | 22 | 280 | 20.9 | 0.0 | 0.00 | 0.00 | 0.00 | 43 | 1018.0 |
| 20260905120553 | 22 | 280 | 20.9 | 0.0 | 0.00 | 0.00 | 0.00 | 43 | 1018.0 |
| 20260905115845 | 22 | 250 | 29.0 | 0.0 | 0.00 | 0.00 | 0.00 | 46 | 1018.0 |
| 20260905114059 | 22 | 250 | 29.0 | 0.0 | 0.00 | 0.00 | 0.00 | 46 | 1018.0 |
| 20260905113230 | 22 | 250 | 29.0 | 0.0 | 0.00 | 0.00 | 0.00 | 46 | 1018.0 |
| 20260905112738 | 21 | 250 | 24.1 | 0.0 | 0.00 | 0.00 | 0.00 | 49 | 1018.0 |
| 20260905112251 | 21 | 250 | 24.1 | 0.0 | 0.00 | 0.00 | 0.00 | 49 | 1018.0 |
| 20260905112244 | 21 | 260 | 22.5 | 0.0 | 0.00 | 0.00 | 0.00 | 49 | |
| 20260905111852 | 21 | 250 | 24.1 | 0.0 | 0.00 | 0.00 | 0.00 | 49 | 1018.0 |
| 20260905110231 | 21 | 250 | 24.1 | 0.0 | 0.00 | 0.00 | 0.00 | 49 | 1018.0 |
| 20260905105238 | 21 | 230 | 25.7 | 0.0 | 0.00 | 0.00 | 0.00 | 52 | 1018.0 |
| 20260905105100 | 21 | 230 | 25.7 | 0.0 | 0.00 | 0.00 | 0.00 | 52 | 1018.0 |
| 20260905104638 | 21 | 230 | 25.7 | 0.0 | 0.00 | 0.00 | 0.00 | 52 | 1018.0 |
| 20260905104338 | 21 | 230 | 25.7 | 0.0 | 0.00 | 0.00 | 0.00 | 52 | 1018.0 |
| 20260905103231 | 21 | 230 | 25.7 | 0.0 | 0.00 | 0.00 | 0.00 | 52 | 1018.0 |
| 20260905102838 | 20 | 240 | 29.0 | 0.0 | 0.00 | 0.00 | 0.00 | 60 | 1018.0 |
| 20260905102637 | 20 | 240 | 29.0 | 0.0 | 0.00 | 0.00 | 0.00 | 60 | |
| 20260905102343 | 20 | 240 | 29.0 | 0.0 | 0.00 | 0.00 | 0.00 | 60 | 1018.0 |
| 20260905101938 | 20 | 240 | 29.0 | 0.0 | 0.00 | 0.00 | 0.00 | 60 | 1018.0 |
| 20260905101438 | 20 | 240 | 29.0 | 0.0 | 0.00 | 0.00 | 0.00 | 60 | 1018.0 |
| 20260905100838 | 20 | 240 | 29.0 | 0.0 | 0.00 | 0.00 | 0.00 | 60 | 1018.0 |
| 20260905100344 | 20 | 240 | 29.0 | 0.0 | 0.00 | 0.00 | 0.00 | 60 | 1018.0 |
| 20260905095238 | 17 | 250 | 25.7 | 0.0 | 0.00 | 0.00 | 0.00 | 67 | 1018.0 |
| 20260905094838 | 17 | 250 | 25.7 | 0.0 | 0.00 | 0.00 | 0.00 | 67 | 1018.0 |
| 20260905094238 | 17 | 250 | 25.7 | 0.0 | 0.00 | 0.00 | 0.00 | 67 | 1018.0 |
| 20260905093739 | 17 | 250 | 25.7 | 0.0 | 0.00 | 0.00 | 0.00 | 67 | 1018.0 |
| 20260905092438 | 17 | 250 | 25.7 | 0.0 | 0.00 | 0.00 | 0.00 | 72 | 1018.0 |
| 20260905092242 | 17 | 250 | 25.7 | 0.0 | 0.00 | 0.00 | 0.00 | 72 | |
| 20260905091951 | 17 | 250 | 25.7 | 0.0 | 0.00 | 0.00 | 0.00 | 72 | 1018.0 |
| 20260905090839 | 17 | 250 | 25.7 | 0.0 | 0.00 | 0.00 | 0.00 | 72 | 1018.0 |
| 20260905090236 | 17 | 250 | 25.7 | 0.0 | 0.00 | 0.00 | 0.00 | 72 | 1018.0 |
| 20260905084238 | 17 | 240 | 25.7 | 0.0 | 0.00 | 0.00 | 0.00 | 77 | 1018.0 |
| 20260905083231 | 17 | 240 | 25.7 | 0.0 | 0.00 | 0.00 | 0.00 | 77 | 1018.0 |
| 20260905082235 | 17 | 240 | 19.3 | 0.0 | 0.00 | 0.00 | 0.00 | 77 | |
| 20260905080234 | 17 | 230 | 19.3 | 0.0 | 0.00 | 0.00 | 0.00 | 77 | 1018.0 |
| 20260905073230 | 16 | 230 | 14.5 | 0.0 | 0.00 | 0.00 | 0.00 | 87 | 1018.0 |
| 20260905072535 | 16 | 0 | 8.0 | 0.0 | 0.00 | 0.00 | 0.00 | 87 | |
| 20260905070232 | 16 | 270 | 8.0 | 0.0 | 0.00 | 0.00 | 0.00 | 82 | 1017.0 |
| 20260905063231 | 16 | 250 | 16.1 | 0.0 | 0.00 | 0.00 | 0.00 | 82 | 1017.0 |
| 20260905062235 | 17 | 220 | 19.3 | 0.0 | 0.00 | 0.00 | 0.00 | 77 | |
| 20260905060237 | 16 | 220 | 19.3 | 0.0 | 0.00 | 0.00 | 0.00 | 82 | 1017.0 |
| 20260905053223 | 16 | 220 | 19.3 | 0.0 | 0.00 | 0.00 | 0.00 | 87 | 1017.0 |
| 20260905052231 | 17 | 220 | 19.3 | 0.0 | 0.00 | 0.00 | 0.00 | 72 | |
| 20260905050234 | 17 | 220 | 16.1 | 0.0 | 0.00 | 0.00 | 0.00 | 82 | 1016.0 |
| 20260905043224 | 17 | 220 | 14.5 | 0.0 | 0.00 | 0.00 | 0.00 | 82 | 1015.0 |
| 20260905042636 | 17 | 250 | 11.3 | 0.0 | 0.00 | 0.00 | 0.00 | 72 | |
| 20260905042404 | 17 | 240 | 16.1 | 0.0 | 0.00 | 0.00 | 0.00 | 82 | 1016.0 |
| 20260905040237 | 17 | 260 | 12.9 | 0.0 | 0.00 | 0.00 | 0.00 | 77 | 1015.0 |
| 20260905033224 | 18 | 0 | 3.2 | 0.0 | 0.00 | 0.00 | 0.00 | 63 | 1015.0 |
| 20260905032235 | 20 | 0 | 3.2 | 0.0 | 0.00 | 0.00 | 0.00 | 60 | |
| 20260905030234 | 20 | 120 | 8.0 | 0.0 | 0.00 | 0.00 | 0.00 | 60 | 1014.0 |
| 20260905023224 | 18 | 120 | 8.0 | 0.0 | 0.00 | 0.00 | 0.00 | 63 | 1014.0 |
| 20260905022233 | 20 | 110 | 11.3 | 0.0 | 0.00 | 0.00 | 0.00 | 60 | |
| 20260905020233 | 18 | 110 | 9.7 | 0.0 | 0.00 | 0.00 | 0.00 | 63 | 1014.0 |
| 20260905013223 | 18 | 90 | 11.3 | 0.0 | 0.00 | 0.00 | 0.00 | 68 | 1014.0 |
| 20260905012550 | 20 | 80 | 11.3 | 0.0 | 0.00 | 0.00 | 0.00 | 64 | |
| 20260905010233 | 18 | 80 | 9.7 | 0.0 | 0.00 | 0.00 | 0.00 | 68 | 1014.0 |
| 20260905003224 | 18 | 70 | 11.3 | 0.0 | 0.00 | 0.00 | 0.00 | 68 | 1014.0 |
| 20260905002247 | 20 | 30 | 14.5 | 0.0 | 0.00 | 0.00 | 0.00 | 64 | |
| 20260905000233 | 18 | 40 | 16.1 | 0.0 | 0.00 | 0.00 | 0.00 | 68 | 1013.0 |
| 20260904233224 | 20 | 10 | 22.5 | 0.0 | 0.00 | 0.00 | 0.00 | 60 | 1012.0 |
| 20260904232319 | 21 | 360 | 22.5 | 0.0 | 0.00 | 0.00 | 0.00 | 60 | |
| 20260904230234 | 21 | 360 | 22.5 | 0.0 | 0.00 | 0.00 | 0.00 | 60 | 1012.0 |
| 20260904223224 | 22 | 230 | 20.9 | 0.0 | 0.00 | 0.00 | 0.00 | 53 | 1011.0 |
| 20260904222649 | 23 | 230 | 22.5 | 0.0 | 0.00 | 0.00 | 0.00 | 47 | |
| 20260904220233 | 22 | 230 | 20.9 | 0.0 | 0.00 | 0.00 | 0.00 | 56 | 1011.0 |
| 20260904213224 | 22 | 220 | 19.3 | 0.0 | 0.00 | 0.00 | 0.00 | 49 | 1010.0 |
| 20260904212233 | 23 | 220 | 19.3 | 0.0 | 0.00 | 0.00 | 0.00 | 47 |